Regional Weather Roundup
Issued by NWS

Home | Current Version | Previous Version | Graphics & Text | Print | Product List | Glossary On
Versions: 1 2 3 4 5 6 7 8 9 10 11 12 13 14 15 16 17 18 19 20 21 22 23 24 25 26 27 28 29 30 31 32 33 34 35 36 37 38 39 40 41 42 43 44 45 46 47 48 49 50
000
ASUS43 KOAX 070410
RWRNE

WEATHER ROUNDUP FOR NEBRASKA
NATIONAL WEATHER SERVICE OMAHA NE
1100 PM CDT WED MAY 06 2015

NOTES: SATELLITE DATA IS BEING USED TO AUGMENT CLOUD COVER ABOVE
       12000 FEET.
       "FAIR" INDICATES FEW OR NO CLOUDS BELOW 12,000 FEET WITH NO
       SIGNIFICANT WEATHER AND/OR OBSTRUCTIONS TO VISIBILITY.

  * THESE STATIONS DO NOT REPORT WEATHER SUCH AS RAIN...SNOW OR FOG.

NEZ001>004-019>022-054>056-070500-
NEBRASKA PANHANDLE

CITY           SKY/WX    TMP DP  RH WIND       PRES   REMARKS
SCOTTSBLUFF    CLOUDY    50  45  83 NW23G30   29.78R
ALLIANCE       CLOUDY    50  48  93 NW14      29.71R
CHADRON        CLOUDY    51  49  92 W7        29.73R
KIMBALL        CLOUDY    48  46  91 NW16G23   29.79R
SIDNEY         CLOUDY    52  47  83 NW23G31   29.76R
$$

NEZ057>060-069>072-079>082-070500-
SOUTHWEST NEBRASKA

CITY           SKY/WX    TMP DP  RH WIND       PRES   REMARKS
NORTH PLATTE   MOCLDY    58  55  90 CALM      29.62R
IMPERIAL       PTCLDY    58  53  84 W10       29.66R
LEXINGTON      MOCLDY    60  58  93 E5        29.61S FOG
MCCOOK         CLEAR     60  55  83 W9        29.62R
OGALLALA       CLOUDY    55  54  94 CALM      29.66R
$$

NEZ005>010-023>029-035>040-094-070500-
NORTH CENTRAL NEBRASKA

CITY           SKY/WX    TMP DP  RH WIND       PRES   REMARKS
VALENTINE      MOCLDY    58  56  93 W5        29.61S
AINSWORTH      MOCLDY    58  57  97 CALM      29.62R
BROKEN BOW     CLOUDY    58  56  93 SE6       29.61S
O`NEILL        CLOUDY    61  57  88 S14       29.64R
ORD            MOCLDY    58  55  90 S5        29.61R
THEDFORD       PTCLDY    58  57  97 S6        29.62S
$$

NEZ041-046>049-061>064-073>077-083>087-070500-
SOUTH CENTRAL NEBRASKA

CITY           SKY/WX    TMP DP  RH WIND       PRES   REMARKS
GRAND ISLAND   LGT RAIN  61  58  90 S13G21    29.65R
AURORA         CLOUDY    60  60 100 S17G23    29.65R
HASTINGS       TSTM      61  59  93 SE14G21   29.65R
HEBRON         CLOUDY    61  58  90 SE9G30    29.68R
HOLDREGE       CLOUDY    59  57  94 SE5       29.61F
KEARNEY *      CLOUDY    57  55  94 SE5       29.62F
YORK           LGT RAIN  59  59 100 SE16      29.67R
$$

NEZ011>018-030>034-042>045-070500-
NORTHEAST NEBRASKA

CITY           SKY/WX    TMP DP  RH WIND       PRES   REMARKS
NORFOLK        CLOUDY    62  59  90 SE16      29.63F
ALBION         CLOUDY    59  56  90 SE9G17    29.63F
BLAIR          TSTM      60  58  92 S8G15     29.78S
COLUMBUS *     CLOUDY    63  54  72 SE15G21   29.66F
FREMONT        CLOUDY    62  60  94 SE15      29.72F
TEKAMAH        TSTM      63  60  90 S23       29.75S FOG
WAYNE          LGT RAIN  63  60  90 SE21G31   29.64F
$$

NEZ050>053-065>068-078-088>093-070500-
SOUTHEAST NEBRASKA

CITY           SKY/WX    TMP DP  RH WIND       PRES   REMARKS
LINCOLN        TSTM      62  58  86 SE16G30   29.70F FOG
OMAHA EPPLEY   TSTM      65  60  84 W6        29.75S
BEATRICE       CLOUDY    62  58  89 NW12G24   29.72R
FALLS CITY     CLOUDY    69  58  67 SE22G31   29.76F
NEBRASKA CITY  LGT RAIN  66  59  77 SE17G25   29.73F
PLATTSMOUTH    CLOUDY    66  60  81 SE15G21   29.74F
$$

NEZ044-045-051>053-067-070500-
OMAHA AREA

CITY           SKY/WX    TMP DP  RH WIND       PRES   REMARKS
OMAHA EPPLEY   TSTM      65  60  84 W6        29.75S
BLAIR          TSTM      60  58  92 S8G15     29.78S
FREMONT        CLOUDY    62  60  94 SE15      29.72F
MILLARD        TSTM      64  61  90 S5        29.75F
OFFUTT AFB     TSTM      67  62  82 SE9G23    29.73F
PLATTSMOUTH    CLOUDY    66  60  81 SE15G21   29.74F
WAHOO          LGT RAIN  62  59  90 SE21G28   29.71F
$$



USA.gov is the U.S. government's official web portal to all federal, state and local government web resources and services.